FENGYUN 1C DEB

Satellite information

Favourite Embed

Satellite Type and Status

DEBRISIN ORBIT

Key statistics

Satellite FENGYUN 1C DEB at a glance.

Uptime

9663

Days in orbit

Revolutions

≈ 14.4

Per day

Orbit

SSO

Sun Synchronous Orbit

Inclination

99.3

Latest

Satellite identification and parameters

Extended collection of information and parameters for FENGYUN 1C DEB.

Object identification

Identified? True

Debris? True

Object name: FENGYUN 1C DEB

International designator: 1999-025AWG

Object number (NORAD): 30846

Object ID (CCSDS): 30846

Country: PEOPLES REPUBLIC OF CHINA (PRC)

Current information (Y/N): Y

RCS size: SMALL

Orbital parameters

Period: 99.92 minutes

Inclination: 99.3215 deg

SMA: 7132.807 km

Apoapsis: 793.972 km

Periapsis: 715.371 km

RAAN: 104.583 deg

Eccentricy: 0.00550982

Argument of periapsis: 124.6526 deg

Mean anomaly: 26.3189 deg

Mean motion: 14.41159539 rev/day

Mean motion (dot): 0.00003976 rev/day2

B* drag term: 0.0012259964 1/REarth

Two-line elements (TLE)

Creation date: Oct. 23, 2025, 2:46 a.m.

Reference frame: TEME

Reference center: EARTH

Epoch: Oct. 22, 2025, 11:05 p.m. UTC

TLE line 0: 0 FENGYUN 1C DEB

TLE line 1: 1 30846U 99025AWG 25295.96182531 .00003976 00000-0 12260-2 0 9992

TLE line 2: 2 30846 99.3215 104.5830 0055098 124.6526 26.3189 14.41159539971981

Live tracking on map

Real-time ground track for satellite FENGYUN 1C DEB.

In-orbit conjunctions

A list of the most updated potential collisions computed for object FENGYUN 1C DEB.

Target Orbit TCA Probability of collision Miss distance Type
SL-3 DEB LEO 2025-07-19 23:17:00 0.000443562 103.0 (m) DEBRIS
CZ-6A DEB SSO 2025-07-02 00:40:58 0.0001478279 48.0 (m) DEBRIS
CZ-2D R/B SSO 2025-03-11 00:42:01 0.0001313752 984.0 (m) ROCKET BODY
CZ-6A DEB LEO 2025-02-27 03:17:35 0.0002866083 508.0 (m) DEBRIS
SL-3 R/B LEO 2025-02-12 00:03:05 0.0002717454 689.0 (m) ROCKET BODY

Associated space launch

Chinese polar orbiting meteorological satellite

FENGYUN 1C DEB was lifted into orbit during the mission ‘Long March 4B | Feng Yun 1C’, on board a Long March 4B space rocket.

The launch took place on May 10, 1999, 1:33 a.m. from Launch Complex 7.

For more information about the launch, click the button.

Launch to space Long March 4B | Feng Yun 1C
Long March 4B | Feng Yun 1C

Agency: N/A

Status: Launch Successful

Launch date: May 10, 1999, 1:33 a.m. UTC

Rocket: Long March 4B

Launch pad: Launch Complex 7

Location: Taiyuan Satellite Launch Center, People's Republic of China

...

Latest news about this satellite

There are no fresh news available about this satellite. Check back as we update our databases every day.


Newsletter sign-up

Weekly statistics, charts and insights to help you stay on top of the space industry.